This is the latest recevied weather packets stored in our database for station/object DB8NZ-22. If no packets are shown the sender has not sent any weather packets the latest 10 day(s).
| Time | Temp. | Humidity | Pressure | Rain* | Wind** | Luminosity | Snow |
|---|---|---|---|---|---|---|---|
| 1777756233 | 15.56° C | 41% | 1017.1 hPa | - | - | - | - |
| 1777755332 | 16.11° C | 40% | 1017.2 hPa | - | - | - | - |
| 1777754432 | 16.11° C | 40% | 1017.2 hPa | - | - | - | - |
| 1777753532 | 16.67° C | 38% | 1017.3 hPa | - | - | - | - |
| 1777752632 | 17.22° C | 38% | 1017.4 hPa | - | - | - | - |
| 1777751732 | 17.78° C | 37% | 1017.2 hPa | - | - | - | - |
| 1777750832 | 18.33° C | 36% | 1017.3 hPa | - | - | - | - |
| 1777749932 | 19.44° C | 34% | 1017.2 hPa | - | - | - | - |
| 1777749032 | 20° C | 34% | 1017.1 hPa | - | - | - | - |
| 1777748132 | 21.11° C | 32% | 1017.1 hPa | - | - | - | - |
| 1777747232 | 22.78° C | 29% | 1017 hPa | - | - | - | - |
| 1777746332 | 23.89° C | 31% | 1016.9 hPa | - | - | - | - |
| 1777745432 | 25° C | 27% | 1016.9 hPa | - | - | - | - |
| 1777744531 | 26.11° C | 27% | 1016.8 hPa | - | - | - | - |
| 1777743631 | 27.22° C | 24% | 1016.8 hPa | - | - | - | - |
| 1777742731 | 28.33° C | 21% | 1016.9 hPa | - | - | - | - |
| 1777741831 | 30° C | 19% | 1016.9 hPa | - | - | - | - |
| 1777740931 | 32.22° C | 18% | 1016.9 hPa | - | - | - | - |
| 1777740031 | 32.22° C | 18% | 1017.2 hPa | - | - | - | - |
| 1777739131 | 32.22° C | 18% | 1017.3 hPa | - | - | - | - |
| 1777738231 | 32.22° C | 17% | 1017.7 hPa | - | - | - | - |
| 1777737331 | 32.22° C | 17% | 1017.8 hPa | - | - | - | - |
| 1777736431 | 32.78° C | 17% | 1017.9 hPa | - | - | - | - |
| 1777735531 | 32.78° C | 17% | 1018.1 hPa | - | - | - | - |
| 1777734631 | 32.78° C | 17% | 1018.1 hPa | - | - | - | - |
* Rain since midnight (hover to see other rain measurements)
** Current wind speed in m/s (hover to see current wind gust speed)